| time (UTC) | temp C | wind direction | speed KPH | gust KPH | rain 1hr cm | rain 24hr cm | rain mn cm | humidity % | barometer mb |
| 20260505035003 | 13 | 194 | 0.0 | 0.0 | 0.00 | 0.00 | 0.00 | 57 | 996.8 |
| 20260505034003 | 13 | 194 | 0.0 | 0.0 | 0.00 | 0.00 | 0.00 | 58 | 996.4 |
| 20260505033024 | 13 | 192 | 0.0 | 0.0 | 0.00 | 0.00 | 0.00 | 57 | 996.4 |
| 20260505032003 | 13 | 194 | 0.0 | 0.0 | 0.00 | 0.00 | 0.00 | 57 | 995.9 |
| 20260505031024 | 13 | 195 | 0.0 | 0.0 | 0.00 | 0.00 | 0.00 | 54 | 996.4 |
| 20260505030002 | 14 | 194 | 0.0 | 0.0 | 0.00 | 0.00 | 0.00 | 54 | 996.4 |
| 20260505025003 | 15 | 194 | 0.0 | 0.0 | 0.00 | 0.00 | 0.00 | 53 | 995.9 |
| 20260505024024 | 15 | 192 | 0.0 | 0.0 | 0.00 | 0.00 | 0.00 | 48 | 995.4 |
| 20260505023002 | 16 | 187 | 0.0 | 0.0 | 0.00 | 0.00 | 0.00 | 47 | 995.4 |
| 20260505022003 | 16 | 194 | 0.0 | 0.0 | 0.00 | 0.00 | 0.00 | 46 | 995.0 |
| 20260505021003 | 17 | 194 | 0.0 | 3.2 | 0.00 | 0.00 | 0.00 | 45 | 995.9 |
| 20260505020003 | 17 | 167 | 0.0 | 0.0 | 0.00 | 0.00 | 0.00 | 44 | 995.9 |
| 20260505015002 | 18 | 168 | 0.0 | 1.6 | 0.00 | 0.00 | 0.00 | 45 | 995.6 |
| 20260505014002 | 18 | 239 | 0.0 | 0.0 | 0.00 | 0.00 | 0.00 | 45 | 995.6 |
| 20260505013004 | 19 | 243 | 0.0 | 0.0 | 0.00 | 0.00 | 0.00 | 42 | 995.6 |
| 20260505012002 | 20 | 237 | 0.0 | 0.0 | 0.00 | 0.00 | 0.00 | 40 | 995.3 |
| 20260505010003 | 20 | 240 | 0.0 | 0.0 | 0.00 | 0.00 | 0.00 | 34 | 997.0 |
| 20260505005002 | 20 | 237 | 0.0 | 0.0 | 0.00 | 0.00 | 0.00 | 30 | 997.3 |
| 20260505004003 | 20 | 235 | 0.0 | 0.0 | 0.00 | 0.00 | 0.00 | 29 | 997.3 |
| 20260505003024 | 21 | 242 | 0.0 | 4.8 | 0.00 | 0.00 | 0.00 | 31 | 997.3 |
| 20260505002003 | 21 | 239 | 0.0 | 12.9 | 0.00 | 0.00 | 0.00 | 30 | 997.8 |
| 20260505001003 | 21 | 332 | 0.0 | 12.9 | 0.00 | 0.00 | 0.00 | 30 | 998.2 |
| 20260505000003 | 21 | 328 | 1.6 | 17.7 | 0.00 | 0.00 | 0.00 | 27 | 998.2 |
| 20260504235003 | 21 | 309 | 4.8 | 19.3 | 0.00 | 0.00 | 0.00 | 27 | 998.1 |
| 20260504234003 | 21 | 306 | 1.6 | 12.9 | 0.00 | 0.00 | 0.00 | 27 | 997.6 |
| 20260504233002 | 21 | 289 | 1.6 | 19.3 | 0.00 | 0.00 | 0.00 | 29 | 997.6 |
| 20260504232004 | 21 | 308 | 1.6 | 12.9 | 0.00 | 0.00 | 0.00 | 29 | 997.2 |
| 20260504231024 | 22 | 279 | 3.2 | 12.9 | 0.00 | 0.00 | 0.00 | 27 | 996.9 |
| 20260504230002 | 22 | 55 | 0.0 | 1.6 | 0.00 | 0.00 | 0.00 | 27 | 996.9 |
| 20260504225003 | 23 | 50 | 0.0 | 3.2 | 0.00 | 0.00 | 0.00 | 24 | 996.7 |
| 20260504224003 | 23 | 53 | 0.0 | 4.8 | 0.00 | 0.00 | 0.00 | 25 | 996.2 |
| 20260504223002 | 23 | 60 | 1.6 | 6.4 | 0.00 | 0.00 | 0.00 | 26 | 996.2 |
| 20260504222003 | 23 | 127 | 0.0 | 4.8 | 0.00 | 0.00 | 0.00 | 28 | 996.2 |
| 20260504221004 | 24 | 119 | 0.0 | 8.0 | 0.00 | 0.00 | 0.00 | 23 | 995.9 |
| 20260504220002 | 25 | 125 | 1.6 | 6.4 | 0.00 | 0.00 | 0.00 | 27 | 995.9 |
| 20260504215003 | 24 | 191 | 0.0 | 4.8 | 0.00 | 0.00 | 0.00 | 28 | 996.1 |
| 20260504214003 | 25 | 208 | 1.6 | 11.3 | 0.00 | 0.00 | 0.00 | 26 | 996.7 |
| 20260504213002 | 24 | 353 | 0.0 | 6.4 | 0.00 | 0.00 | 0.00 | 26 | 996.7 |
| 20260504212002 | 23 | 346 | 1.6 | 9.7 | 0.00 | 0.00 | 0.00 | 24 | 996.9 |
| 20260504211003 | 23 | 108 | 0.0 | 11.3 | 0.00 | 0.00 | 0.00 | 25 | 997.0 |
| 20260504210004 | 23 | 67 | 0.0 | 3.2 | 0.00 | 0.00 | 0.00 | 24 | 997.0 |
| 20260504205003 | 23 | 59 | 1.6 | 6.4 | 0.00 | 0.00 | 0.00 | 28 | 997.3 |
| 20260504204025 | 23 | 183 | 0.0 | 4.8 | 0.00 | 0.00 | 0.00 | 28 | 997.5 |
| 20260504203003 | 23 | 58 | 0.0 | 3.2 | 0.00 | 0.00 | 0.00 | 28 | 997.5 |
| 20260504202003 | 23 | 27 | 0.0 | 4.8 | 0.00 | 0.00 | 0.00 | 26 | 997.9 |
| 20260504201024 | 22 | 37 | 1.6 | 9.7 | 0.00 | 0.00 | 0.00 | 29 | 997.8 |
| 20260504200003 | 22 | 52 | 3.2 | 9.7 | 0.00 | 0.00 | 0.00 | 29 | 997.8 |
| 20260504195003 | 22 | 10 | 0.0 | 11.3 | 0.00 | 0.00 | 0.00 | 28 | 997.9 |
| 20260504194003 | 22 | 356 | 0.0 | 11.3 | 0.00 | 0.00 | 0.00 | 32 | 998.2 |
| 20260504193003 | 22 | 353 | 3.2 | 9.7 | 0.00 | 0.00 | 0.00 | 26 | 998.2 |
| 20260504192002 | 22 | 49 | 3.2 | 9.7 | 0.00 | 0.00 | 0.00 | 29 | 998.4 |
| 20260504191003 | 22 | 49 | 6.4 | 9.7 | 0.00 | 0.00 | 0.00 | 28 | 998.7 |
| 20260504190045 | 22 | 62 | 3.2 | 9.7 | 0.00 | 0.00 | 0.00 | 31 | 998.7 |
| 20260504185004 | 22 | 77 | 0.0 | 3.2 | 0.00 | 0.00 | 0.00 | 28 | 999.1 |
| 20260504184004 | 22 | 48 | 0.0 | 1.6 | 0.00 | 0.00 | 0.00 | 33 | 999.3 |
| 20260504183004 | 21 | 78 | 0.0 | 0.0 | 0.00 | 0.00 | 0.00 | 31 | 999.3 |
| 20260504182003 | 21 | 109 | 0.0 | 0.0 | 0.00 | 0.00 | 0.00 | 32 | 999.8 |
| 20260504181003 | 20 | 356 | 0.0 | 4.8 | 0.00 | 0.00 | 0.00 | 35 | 1000.0 |
| 20260504180004 | 20 | 36 | 0.0 | 4.8 | 0.00 | 0.00 | 0.00 | 38 | 1000.0 |
| 20260504175003 | 20 | 340 | 0.0 | 0.0 | 0.00 | 0.00 | 0.00 | 34 | 1000.2 |
| 20260504174002 | 19 | 340 | 0.0 | 3.2 | 0.00 | 0.00 | 0.00 | 36 | 1000.6 |
| 20260504173024 | 19 | 37 | 0.0 | 0.0 | 0.00 | 0.00 | 0.00 | 37 | 1000.6 |
| 20260504172003 | 19 | 328 | 0.0 | 0.0 | 0.00 | 0.00 | 0.00 | 37 | 1000.6 |
| 20260504171002 | 18 | 326 | 0.0 | 0.0 | 0.00 | 0.00 | 0.00 | 36 | 1000.6 |
| 20260504151003 | 13 | 52 | 0.0 | 0.0 | 0.00 | 0.00 | 0.00 | 44 | 1001.2 |
| 20260504141002 | 10 | 291 | 0.0 | 0.0 | 0.00 | 0.00 | 0.00 | 57 | 1001.9 |
| 20260504081024 | 6 | 339 | 0.0 | 0.0 | 0.00 | 0.00 | 0.00 | 67 | 1000.1 |
| 20260504050004 | 9 | 356 | 0.0 | 0.0 | 0.00 | 0.00 | 0.00 | 52 | 1002.0 |
| 20260504045003 | 9 | 356 | 0.0 | 0.0 | 0.00 | 0.00 | 0.00 | 52 | 1002.0 |
| 20260504044003 | 10 | 356 | 0.0 | 0.0 | 0.00 | 0.00 | 0.00 | 53 | 1001.8 |
| 20260504043003 | 10 | 356 | 0.0 | 0.0 | 0.00 | 0.00 | 0.00 | 52 | 1001.8 |
| 20260504042003 | 10 | 356 | 0.0 | 0.0 | 0.00 | 0.00 | 0.00 | 50 | 1001.9 |
| 20260504041049 | 10 | 356 | 0.0 | 0.0 | 0.00 | 0.00 | 0.00 | 49 | 1002.4 |
| 20260504040003 | 10 | 356 | 0.0 | 0.0 | 0.00 | 0.00 | 0.00 | 47 | 1002.4 |